Owosso, MI

1:39 PM EDT on July 27, 2017 (GMT -0400)
Owosso

Weather History for KRNP - June, 2013

Change the Weather History Date:

Friday, June 14, 2013

  Actual Average (KFNT) Record (KFNT)
Temperature  
Mean Temperature 66 °F -  
Max Temperature 75 °F 78 °F 97 °F (1987)
Min Temperature 56 °F 56 °F 37 °F (1978)
Growing Degree Days 16 (Base 50)    
Moisture  
Dew Point 56 °F    
Average Humidity 74    
Maximum Humidity 99    
Minimum Humidity 39    
Precipitation  
Precipitation 0.00 in - - ()
Sea Level Pressure  
Sea Level Pressure 30.05 in    
Wind  
Wind Speed 4 mph (NNW)    
Max Wind Speed 8 mph    
Max Gust Speed -    
Visibility 10 miles    
Events      
Averages and records for this station are not official NWS values.
T = Trace of Precipitation, MM = Missing Value Source: NWS Daily Summary

Daily Weather History Graph

Daily Weather History Graph

Search for Another Location

Airport or City:

Trip Planner

Search our weather history database for the weather conditions in past years. The results will help you decide how hot, cold, wet, or windy it might be!

Date:

Astronomy

Jun. 14, 2013 Rise Set
Actual Time 5:56 AM EDT 9:17 PM EDT
Civil Twilight 5:21 AM EDT 9:52 PM EDT
Nautical Twilight 4:35 AM EDT 10:38 PM EDT
Astronomical Twilight 3:39 AM EDT 11:35 PM EDT
Moon 11:38 AM EDT (6/14) 12:15 AM EDT (6/14)
Length of Visible Light 16h 30m
Length of Day
15h 20m
Waxing Crescent, 30% of the Moon is Illuminated
Jun 14
Waxing Crescent
Jun 16
First Quarter
Jun 23
Full
Jun 30
Last Quarter
Jul 8
New

Hourly Weather History & Observations

Time (EDT) Temp. Dew Point Humidity Pressure Visibility Wind Dir Wind Speed Gust Speed Precip Events Conditions
12:14 AM 63.7 °F 60.6 °F 90% 29.96 in 10.0 mi NNW 3.5 mph - N/A   Clear
12:35 AM 62.8 °F 59.9 °F 90% 29.96 in 10.0 mi Calm Calm - N/A   Clear
12:55 AM 62.6 °F 59.7 °F 90% 29.97 in 10.0 mi Calm Calm - N/A   Clear
1:15 AM 61.2 °F 59.0 °F 93% 29.98 in 10.0 mi NW 4.6 mph - N/A   Clear
1:35 AM 61.7 °F 59.2 °F 91% 29.98 in 10.0 mi NW 3.5 mph - N/A   Mostly Cloudy
1:55 AM 61.0 °F 58.5 °F 91% 29.98 in 10.0 mi NW 4.6 mph - N/A   Mostly Cloudy
2:15 AM 60.3 °F 58.3 °F 93% 29.98 in 10.0 mi NNW 4.6 mph - N/A   Clear
2:35 AM 59.9 °F 57.9 °F 93% 29.99 in 10.0 mi NW 5.8 mph - N/A   Clear
2:55 AM 59.5 °F 57.7 °F 94% 29.99 in 10.0 mi NW 5.8 mph - N/A   Scattered Clouds
3:15 AM 59.2 °F 57.6 °F 94% 29.99 in 10.0 mi NW 4.6 mph - N/A   Clear
3:35 AM 59.0 °F 57.4 °F 94% 29.99 in 10.0 mi NNW 3.5 mph - N/A   Clear
3:55 AM 58.5 °F 57.2 °F 96% 29.99 in 10.0 mi NNW 3.5 mph - N/A   Clear
4:15 AM 58.1 °F 57.2 °F 97% 29.99 in 10.0 mi NNW 3.5 mph - N/A   Clear
4:35 AM 57.7 °F 56.8 °F 97% 29.99 in 10.0 mi NNW 3.5 mph - N/A   Clear
4:55 AM 57.6 °F 56.8 °F 97% 30.00 in 10.0 mi NNW 3.5 mph - N/A   Clear
5:15 AM 57.2 °F 56.5 °F 97% 30.00 in 10.0 mi NNW 4.6 mph - N/A   Clear
5:35 AM 57.2 °F 56.3 °F 97% 30.01 in 10.0 mi Calm Calm - N/A   Clear
5:55 AM 56.8 °F 56.3 °F 98% 30.01 in 10.0 mi Calm Calm - N/A   Clear
6:14 AM 56.7 °F 56.3 °F 99% 30.02 in 10.0 mi North 3.5 mph - N/A   Clear
6:35 AM 56.8 °F 56.3 °F 98% 30.02 in 10.0 mi NNW 4.6 mph - N/A   Clear
6:55 AM 57.2 °F 56.5 °F 97% 30.03 in 10.0 mi NNW 3.5 mph - N/A   Clear
7:14 AM 57.7 °F 56.8 °F 97% 30.04 in 10.0 mi NNW 4.6 mph - N/A   Clear
7:35 AM 58.5 °F 56.8 °F 94% 30.06 in 10.0 mi NNW 4.6 mph - N/A   Clear
7:55 AM 59.2 °F 57.0 °F 93% 30.06 in 10.0 mi North 3.5 mph - N/A   Clear
8:15 AM 59.9 °F 56.7 °F 89% 30.06 in 10.0 mi Calm Calm - N/A   Clear
8:35 AM 61.2 °F 56.3 °F 84% 30.07 in 10.0 mi NNE 4.6 mph - N/A   Clear
8:55 AM 62.1 °F 55.9 °F 80% 30.07 in 10.0 mi North 5.8 mph - N/A   Clear
9:15 AM 63.0 °F 55.2 °F 76% 30.09 in 10.0 mi NNE 6.9 mph - N/A   Clear
9:35 AM 63.5 °F 54.7 °F 73% 30.09 in 10.0 mi NNE 8.1 mph - N/A   Clear
9:55 AM 64.0 °F 55.4 °F 73% 30.09 in 10.0 mi North 4.6 mph - N/A   Clear
10:15 AM 64.6 °F 56.1 °F 74% 30.10 in 10.0 mi NNE 5.8 mph - N/A   Clear
10:35 AM 64.6 °F 56.7 °F 75% 30.10 in 10.0 mi NNW 4.6 mph - N/A   Scattered Clouds
10:54 AM 65.8 °F 56.8 °F 73% 30.11 in 10.0 mi NNW 4.6 mph - N/A   Scattered Clouds
11:15 AM 66.0 °F 56.5 °F 71% 30.11 in 10.0 mi NNW 6.9 mph - N/A   Scattered Clouds
11:35 AM 67.8 °F 57.4 °F 69% 30.11 in 10.0 mi North 8.1 mph - N/A   Scattered Clouds
11:54 AM 68.2 °F 56.7 °F 67% 30.11 in 10.0 mi NNW 5.8 mph - N/A   Scattered Clouds
12:15 PM 68.9 °F 57.7 °F 68% 30.11 in 10.0 mi NNW 8.1 mph - N/A   Scattered Clouds
12:35 PM 69.6 °F 58.3 °F 67% 30.10 in 10.0 mi North 6.9 mph - N/A   Scattered Clouds
12:55 PM 69.6 °F 57.2 °F 65% 30.10 in 10.0 mi Calm Calm - N/A   Clear
1:15 PM 70.5 °F 58.5 °F 66% 30.09 in 10.0 mi NW 4.6 mph - N/A   Clear
1:35 PM 70.9 °F 56.8 °F 61% 30.09 in 10.0 mi North 5.8 mph - N/A   Clear
1:55 PM 70.3 °F 55.6 °F 59% 30.09 in 10.0 mi North 4.6 mph - N/A   Clear
2:15 PM 71.6 °F 57.2 °F 60% 30.08 in 10.0 mi North 6.9 mph - N/A   Clear
2:35 PM 72.5 °F 56.8 °F 58% 30.08 in 10.0 mi NNE 3.5 mph - N/A   Clear
2:55 PM 72.1 °F 56.8 °F 58% 30.07 in 10.0 mi NNW 5.8 mph - N/A   Clear
3:15 PM 73.0 °F 55.9 °F 55% 30.07 in 10.0 mi North 5.8 mph - N/A   Scattered Clouds
3:34 PM 73.0 °F 55.6 °F 54% 30.06 in 10.0 mi Calm Calm - N/A   Scattered Clouds
3:55 PM 72.7 °F 55.0 °F 54% 30.06 in 10.0 mi NE 4.6 mph - N/A   Scattered Clouds
4:15 PM 73.4 °F 54.3 °F 51% 30.06 in 10.0 mi WNW 4.6 mph - N/A   Scattered Clouds
4:34 PM 73.4 °F 54.7 °F 52% 30.06 in 10.0 mi NNE 4.6 mph - N/A   Scattered Clouds
4:55 PM 73.8 °F 53.4 °F 49% 30.06 in 10.0 mi NNW 4.6 mph - N/A   Clear
5:15 PM 73.8 °F 50.7 °F 44% 30.06 in 10.0 mi North 3.5 mph - N/A   Clear
5:35 PM 75.2 °F 50.9 °F 42% 30.06 in 10.0 mi NW 6.9 mph - N/A   Clear
5:55 PM 73.9 °F 50.5 °F 44% 30.06 in 10.0 mi Calm Calm - N/A   Clear
6:15 PM 75.2 °F 51.6 °F 44% 30.05 in 10.0 mi West 5.8 mph - N/A   Scattered Clouds
6:35 PM 74.7 °F 51.8 °F 45% 30.05 in 10.0 mi NNW 3.5 mph - N/A   Clear
6:55 PM 75.0 °F 50.5 °F 42% 30.04 in 10.0 mi Calm Calm - N/A   Scattered Clouds
7:15 PM 75.4 °F 48.9 °F 39% 30.04 in 10.0 mi Calm Calm - N/A   Scattered Clouds
7:35 PM 75.2 °F 50.0 °F 41% 30.04 in 10.0 mi West 4.6 mph - N/A   Clear
7:55 PM 74.5 °F 49.1 °F 41% 30.04 in 10.0 mi Calm Calm - N/A   Clear
8:14 PM 74.7 °F 49.1 °F 40% 30.04 in 10.0 mi Calm Calm - N/A   Clear
8:35 PM 73.6 °F 47.1 °F 39% 30.03 in 10.0 mi Calm Calm - N/A   Clear
8:55 PM 69.8 °F 59.4 °F 69% 30.03 in 10.0 mi Calm Calm - N/A   Clear
9:14 PM 66.4 °F 58.1 °F 75% 30.04 in 10.0 mi Calm Calm - N/A   Clear
9:35 PM 65.7 °F 58.1 °F 77% 30.04 in 10.0 mi East 4.6 mph - N/A   Clear
9:55 PM 66.6 °F 57.6 °F 73% 30.05 in 10.0 mi ESE 3.5 mph - N/A   Clear
10:15 PM 63.7 °F 58.3 °F 83% 30.05 in 10.0 mi ESE 3.5 mph - N/A   Clear
10:35 PM 62.4 °F 59.5 °F 90% 30.06 in 10.0 mi SE 3.5 mph - N/A   Clear
10:55 PM 63.3 °F 58.1 °F 83% 30.06 in 10.0 mi SSE 3.5 mph - N/A   Clear
11:15 PM 63.0 °F 57.2 °F 81% 30.06 in 10.0 mi SE 3.5 mph - N/A   Clear
11:35 PM 63.1 °F 56.1 °F 78% 30.05 in 10.0 mi SE 3.5 mph - N/A   Clear
11:55 PM 63.5 °F 55.2 °F 74% 30.05 in 10.0 mi Calm Calm - N/A   Clear